www.pogodaiklimat.ru

Погода и климат >> Архив погоды >> Бангладеш >> Sandwip


ПОГОДА в Sandwip

  • Прогноз погоды в Sandwip
  • Монитор погоды в Sandwip
  • Климат города

АРХИВ ПОГОДЫ в Sandwip

Время (UTC), дата Ветер
(напр.,м/с)
 
Видим.   Явления Облачность Т
(С)
Тd
(С)
f
(%)
Тe
(С)
Тes
(С)
Комфортность P
(гПа)
Po
(гПа)
Тmin
(С)
Tmax
(С)
R
(мм)
R24
(мм)
S
(см)
03 19.02 штиль 0 3500 м мгла ясно +23.5 +20.0 81 +29 +39 душно 1013.9 1013.6 +15.5
06 19.02 СВ 1 6000 м ясно +29.0 +10.0 31 +29 +47 жарко 1012.9 1012.6
09 19.02 З 1 7000 м ясно +30.3 +9.0 27 +30 +38 жарко 1010.6 1010.4
12 19.02 З 1 6000 м ясно +25.0 +16.0 57 +28 +28 жарко 1010.6 1010.3 +30.5
15 19.02 штиль 0 5000 м мгла ясно +20.1 +18.0 88 +23 +23 комфорт 1012.0 1011.7
18 19.02 штиль 0 4000 м мгла ясно +19.0 +18.0 94 +21 +21 комфорт 1012.2 1012.0
00 20.02 штиль 0 1500 м дымка ясно +17.3 +16.0 92 +17 +17 1012.7 1012.4
03 20.02 С 1 4500 м мгла ясно +24.1 +17.0 65 +28 +38 душно 1014.2 1014.0 +16.1
06 20.02 С 1 6000 м 5/0
[Ci fib]
+29.4 +10.0 30 +29 +46 жарко 1012.5 1012.3
09 20.02 СВ 1 7000 м 4/0
[Ci fib]
+30.5 +13.0 34 +32 +39 жарко 1009.3 1009.0
12 20.02 С 1 6000 м ясно +26.6 +15.0 49 +29 +29 жарко 1009.4 1009.2 +30.7
18 20.02 штиль 0 5000 м мгла ясно +21.1 +19.0 88 +25 +25 комфорт 1010.6 1010.3
21 20.02 штиль 0 2500 м дымка ясно +18.4 +17.0 92 +19 +19 1010.6 1010.3
00 21.02 штиль 0 1500 м дымка ясно +17.8 +17.0 95 +18 +18 1010.4 1010.2
03 21.02 СЗ 1 4500 м мгла ясно +24.0 +17.0 65 +28 +38 душно 1012.2 1011.9 +16.8
06 21.02 штиль 0 6000 м ясно +30.1 +15.0 40 +32 +54 опасность
солнечного
удара
1010.7 1010.5
09 21.02 З 1 7000 м ясно +30.7 +15.0 39 +33 +42 душно 1008.6 1008.3
12 21.02 штиль 0 6000 м ясно +26.3 +17.0 57 +30 +30 душно 1007.9 1007.7 +31.0
15 21.02 штиль 0 5000 м ясно +21.7 +20.0 90 +27 +27 душно 1009.4 1009.1
18 21.02 штиль 0 4000 м мгла ясно +21.1 +20.0 93 +26 +26 душно 1010.5 1010.2
21 21.02 штиль 0 4000 м мгла ясно +20.2 +19.0 93 +24 +24 комфорт 1010.2 1009.9
00 22.02 штиль 0 4000 м мгла ясно +19.0 +17.0 88 +20 +20 1009.8 1009.5
03 22.02 З 1 5000 м мгла ясно +24.1 +20.0 78 +30 +40 очень
душно
1011.4 1011.1 +17.8
06 22.02 СЗ 1 6000 м ясно +29.0 +21.0 62 +36 +56 опасность
солнечного
удара
1010.5 1010.3
09 22.02 СЗ 1 7000 м ясно +30.4 +17.0 45 +34 +42 очень
душно
1007.9 1007.6
12 22.02 ЮЗ 1 6000 м ясно +26.0 +22.0 79 +34 +34 очень
душно
1008.1 1007.8 +30.5
15 22.02 штиль 0 5000 м ясно +23.2 +22.0 93 +32 +32 очень
душно
1009.7 1009.5
18 22.02 штиль 0 4000 м мгла ясно +21.1 +20.0 93 +26 +26 душно 1011.3 1011.1
21 22.02 штиль 0 4000 м мгла 8/4 540 м
[Sc As op]
+21.8 +21.0 95 +28 +28 душно 1011.3 1011.0
00 23.02 штиль 0 4000 м мгла 9/4 540 м
[Sc As op]
+22.0 +21.0 94 +28 +28 душно 1011.1 1010.8
03 23.02 ЮВ 1 4500 м мгла 9/4 540 м
[Sc As op]
+24.0 +22.0 89 +31 +33 очень
душно
1012.6 1012.4 +20.3
06 23.02 ЮВ 1 5000 м 3/3 540 м
[Sc]
+27.5 +22.0 72 +36 +50 очень
душно
1012.3 1012.1
09 23.02 ЮВ 1 6000 м ясно +30.0 +22.0 62 +39 +48 очень
душно
1009.5 1009.3
12 23.02 Ю 1 5000 м ясно +23.5 +23.0 97 +31 +31 очень
душно
1009.4 1009.2 +30.0
15 23.02 штиль 0 4000 м мгла ясно +22.6 +18.0 75 +28 +28 душно 1011.6 1011.4
21 23.02 штиль 0 4000 м мгла ясно +21.2 +20.0 93 +26 +26 душно 1012.7 1012.4
00 24.02 штиль 0 1500 м дымка ясно +21.1 +21.0 99 +26 +26 душно 1013.6 1013.3
03 24.02 ЮВ 1 4500 м мгла ясно +25.2 +22.0 82 +32 +43 очень
душно
1015.9 1015.6 +20.1
09 24.02 ЮЗ 1 7000 м ясно +31.9 +16.0 38 +35 +44 очень
душно
1011.9 1011.7
12 24.02 штиль 0 6000 м ясно +26.2 +18.0 61 +31 +31 очень
душно
1012.1 1011.9 +31.9
18 24.02 штиль 0 4000 м мгла ясно +21.5 +21.0 97 +27 +27 душно 1013.9 1013.7
21 24.02 штиль 0 4000 м мгла ясно +20.2 +19.0 93 +24 +24 комфорт 1013.7 1013.4
00 25.02 штиль 0 2000 м дымка ясно +19.5 +19.0 97 +22 +22 комфорт 1013.4 1013.1
06 25.02 СЗ 1 6000 м ясно +31.0 +13.0 33 +32 +53 опасность
солнечного
удара
1013.6 1013.4
09 25.02 ЮЗ 1 7000 м ясно +32.5 +9.0 23 +31 +41 жарко 1013.6 1010.4
12 25.02 штиль 0 6000 м ясно +26.4 +20.0 68 +32 +32 очень
душно
1010.6 1010.3 +32.6
15 25.02 ЮВ 1 5000 м ясно +23.0 +21.0 89 +31 +31 очень
душно
1011.3 1011.1
18 25.02 штиль 0 4000 м ясно +22.0 +21.0 94 +28 +28 душно 1012.2 1011.9

 

Местоположение метеостанции Sandwip (Бангладеш): широта 22.48 долгота 91.43 высота над уровнем моря 6 м.

В архиве по умолчанию представлена погода в Sandwip за последнюю неделю. Архивные данные за месяц целиком и за предыдущие месяцы, начиная с января 2011 года, Вы можете получить, выбрав интересующий диапазон дат из раскрывающегося списка и нажав кнопку "Ввод!".

Внимание! Время в таблицах - всемирное. Для получения местного времени необходимо прибавить поправку, которая в Sandwip равна 6.5 ч.

Смотрите также архив погоды в соседних городах и на ближайших метеорологических станциях:

Погода в Sitakundu (Бангладеш) (30 км)
Погода в Hatia (Бангладеш) (34 км)
Погода в Chittagong (Бангладеш) (46 км)
Погода в Maijdicourt (Бангладеш) (55 км)
Погода в Feni (Бангладеш) (61 км)
Погода в Rangamati (Бангладеш) (79 км)
Погода в Bhola (Бангладеш) (83 км)
Погода в Kutubdia (Бангладеш) (85 км)
Погода в Comilla (Бангладеш) (109 км)
Погода в Barisal (Бангладеш) (113 км)

Пояснения к столбцам:

Ветер - указаны скорость ветра в м/с - средняя за 10 мин, порывы в срок и между сроками (в фигурных скобках) и направление, откуда дует ветер: С - северный, СВ - северо-восточный, В - восточный, ЮВ - юго-восточный, Ю - южный, ЮЗ - юго-западный, З - западный, СЗ - северо-западный.
Видимость - горизонтальная дальность видимости в метрах или километрах. При видимости от 1 до 10 км при отсутствии осадков обычно наблюдается дымка, при ухудшении видимости до 1 км и менее - туман. В сухую погоду видимость может ухудшаться дымом, пылью или мглою.
Явления - указаны атмосферные явления, наблюдавшиеся в срок или в последний час перед сроком; фигурными скобками обозначены явления, наблюдавшиеся между сроками (за 1-3 часа до срока); квадратными скобками обозначены град или гололедные отложения с указанием их диаметра в мм.
Облачность - указаны через наклонную черту общая и нижняя облачность в баллах и высота нижней границы облаков в метрах; квадратными скобками обозначены формы облаков: Ci - перистые, Cs - перисто-слоистые, Cc - перисто-кучевые, Ac - высококучевые, As - высокослоистые, Sc - слоисто-кучевые, Ns - слоисто-дождевые, Cu - кучевые, Cb - кучево-дождевые. Подробнее классификацию облаков см. в Атласе облаков (PDF).
T - Температура воздуха - температура, измеренная на высоте 2 м над землей.
Td - Температура точки росы - температура, при понижении до которой содержащийся в воздухе водяной пар достигнет насыщения.
f - Относительная влажность воздуха - влажноcть воздуха, измеренная на высоте 2 м над землей.
Te - Эффективная температура - температура, которую ощущает одетый по сезону человек в тени. Характеристика душности погоды. При расчете учитывается влияние влажности воздуха и скорости ветра на теплоощущения человека.
Tes - Эффективная температура на солнце - температура, которую ощущает человек, с поправкой на солнечный нагрев. Характеристика знойности погоды. Зависит от высоты солнца над горизонтом, облачности и скорости ветра. Ночью, в пасмурную погоду, а также при ветре 12 м/с и более поправка равна нулю.
P - Атмосферное давление - приведенное к уровню моря атмосферное давление.
Po - Атмосферное давление - измеренное на уровне метеостанции атмосферное давление.
Tmin - Минимальная температура - минимум температуры воздуха на высоте 2 м над землей.
Tmax - Максимальная температура - максимум температуры воздуха на высоте 2 м над землей.
R - Количество осадков - Количество выпавших осадков за период времени, мм. При наведении курсора мыши на число - период времени, за который выпало указанное количество осадков.
R24 - Количество осадков - Количество выпавших осадков за 24 часа, мм.
S - Снежный покров - Высота снежного покрова, см. При наведении курсора мыши на число - состояние снежного покрова и степень покрытия местности в баллах.